Starlink 3958

operational
NORAD ID: 52535 Int'l Des: 2022-051 Owner: SPXS Country: US Constellation: starlink
LEOCIRCULAR

About Starlink 3958

Description loading...

Live Position

Loading 3D Globe...

Upcoming Passes

Altitude History

Altitude vs Time

uPlot chart will show altitude changes over time

Two-Line Element Set

1 52535U 22051C 25302.42226420 .00001086 00000-0 86295-4 0 9993
2 52535 53.2181 358.4011 0001231 90.7255 269.3878 15.08839128191626
Epoch: Oct 29, 2025 • Age: 16 hours

Current Status

Altitude 540.2 km
Velocity 7.60 km/s
Sub-Earth Point 23.78°N, 56.6°W
Launch Date May 13, 2022
Age 3.4 years
Type internet

Technical Details

Classification Payload
Mass 297.00 kg
Dry Mass 275.00 kg
Total Mass 297.00 kg
Length 0.20 m
Diameter 2.80 m
Span 9.00 m
Shape Box + pan
Manufacturer SPXS
Bus Type Starlink
Phase Status In Orbit
Owner/State SPXS/US

Large Constellations

Loading constellations...